CAPE
1 1 1 1 1 1 2 2 1 1 0 0 0 0 1 0 0 0 0 nan nan nan nan nan nan 0 8 9 7 7 6 4 2 2 4 5 9 9 11 9 9 8 7 4 4 2 1 nan nan nan nan nan nan nan nan nan nan nan nan 0 0 1 1 2 2 3 2 1 0 0 0 0 nan nan nan nan nan nan nan 0 0 1 3 1 1 0
1 1 2 1 1 1 1 3 1 1 0 0 1 1 1 0 0 0 0 nan nan nan nan nan nan 0 1 12 6 6 7 6 4 4 7 7 9 9 12 12 12 8 7 5 5 2 0 nan nan nan nan nan nan nan nan nan nan nan nan nan nan nan nan nan nan nan nan nan nan nan nan nan nan nan nan nan nan nan nan 1 1 1 3 2 2 0
2 2 2 3 3 2 1 2 0 0 0 0 1 1 0 0 0 0 0 0 0 nan nan 0 0 nan nan 2 6 6 6 6 6 6 8 8 10 10 12 12 12 10 8 6 6 3 0 nan nan nan nan nan nan nan nan nan nan nan nan nan nan nan nan nan nan nan nan nan nan nan nan nan nan nan nan nan nan nan 0 1 1 1 2 2 2 1
2 1 1 3 3 2 0 0 0 0 0 0 1 1 0 nan 0 0 0 0 0 nan nan nan nan nan nan nan 1 1 6 6 7 7 8 9 10 10 11 12 12 11 9 7 7 3 0 nan nan nan nan nan nan nan nan nan nan nan nan nan nan nan nan nan nan nan nan nan nan nan nan nan nan nan nan nan nan nan nan nan nan 0 1 0 0 0
1 0 0 nan nan nan nan nan nan nan nan 0 0 0 nan nan 0 0 1 0 0 nan nan nan nan nan nan nan nan nan 6 6 8 8 9 10 11 11 12 12 12 12 10 7 7 3 1 nan nan nan nan nan nan nan nan nan nan nan nan nan nan nan nan nan nan nan nan nan nan nan nan nan nan nan nan nan nan nan nan nan nan nan nan nan nan 0
1 0 0 nan nan nan nan 0 nan nan nan nan nan nan nan 0 0 0 1 0 0 0 0 nan nan nan nan nan 3 3 4 9 9 9 9 11 12 12 12 13 13 13 10 7 7 3 0 nan nan nan nan nan nan nan nan nan nan nan nan nan nan nan nan nan nan nan nan nan nan nan nan nan nan nan nan nan nan nan nan nan nan nan nan nan nan 0
1 0 0 nan nan 0 0 1 0 0 0 0 0 0 0 0 0 0 0 0 0 0 0 nan nan nan nan nan 0 0 2 7 10 10 11 12 13 13 14 13 13 12 10 6 6 2 0 nan nan nan nan nan nan nan nan nan nan nan nan nan nan nan nan nan nan nan nan nan nan nan nan nan nan nan nan nan nan nan nan nan nan nan nan nan nan 0
0 1 1 1 1 1 1 0 0 0 1 0 1 1 0 1 1 1 0 nan nan nan nan nan nan nan nan nan nan nan nan nan nan nan nan 6 9 9 11 11 11 8 4 1 1 nan nan nan nan nan nan nan nan nan nan nan nan nan nan nan nan nan nan nan nan nan nan nan nan nan nan nan nan nan nan nan nan nan nan nan nan nan nan nan nan 0
0 0 1 0 0 0 1 0 nan nan nan 1 1 1 0 0 1 1 1 0 0 nan nan nan nan nan nan nan nan nan nan nan nan nan nan nan nan nan 2 3 3 2 0 nan nan nan nan nan nan nan nan nan nan nan nan nan nan nan nan nan nan nan nan nan nan nan nan nan nan nan nan nan nan nan nan nan nan nan nan nan nan nan nan nan nan nan
0 0 1 1 1 nan 1 0 nan nan nan nan nan nan nan 0 1 1 1 1 1 nan nan nan nan nan nan nan nan nan nan nan nan nan nan nan nan nan nan nan nan nan nan nan nan nan nan nan nan nan nan nan nan nan nan nan nan nan nan nan nan nan nan nan nan nan nan nan nan nan nan nan nan nan nan nan nan nan nan nan nan nan nan nan nan nan
1 1 0 0 0 0 nan nan nan nan nan nan nan nan nan nan 3 3 2 1 1 nan nan nan nan nan nan nan nan nan nan nan nan nan nan nan nan nan nan nan nan nan nan nan nan nan nan nan nan nan nan nan nan nan nan nan nan nan nan nan nan nan nan nan nan nan nan nan nan nan nan nan nan nan nan nan nan nan nan nan nan nan nan nan nan nan
nan nan nan 0 0 0 nan nan nan nan 0 1 0 0 0 nan nan nan 3 1 1 nan nan nan nan nan nan nan nan nan nan nan nan nan nan nan nan nan nan nan nan nan nan nan nan nan nan nan nan nan nan nan nan nan nan nan nan nan nan nan nan nan nan nan nan nan nan nan nan nan nan nan nan nan 0 nan nan nan nan nan nan nan nan nan nan nan
nan nan nan 0 0 nan nan 0 0 0 0 1 1 1 2 nan nan nan nan nan nan nan nan nan nan nan nan nan nan nan nan nan nan nan nan nan nan nan nan nan nan nan nan nan nan nan nan nan nan nan nan nan nan nan nan nan nan nan nan nan nan nan nan nan nan nan nan nan nan nan nan nan nan nan 0 0 nan nan nan nan nan nan nan nan nan nan
nan nan 0 1 1 0 0 0 0 0 1 0 nan nan nan nan nan nan nan nan nan nan nan nan nan nan nan nan nan nan nan nan nan nan nan nan nan nan nan nan nan nan nan nan nan nan nan nan nan nan nan nan nan nan nan nan nan nan nan nan nan nan nan nan nan nan nan nan nan nan nan nan nan nan 0 0 nan nan nan nan nan nan nan nan nan nan
nan nan 0 0 0 nan 0 nan nan nan nan nan nan nan nan nan nan nan nan nan nan nan nan nan nan nan nan nan nan nan nan nan nan nan nan nan nan nan nan nan nan nan nan nan nan nan nan nan nan nan nan nan nan nan nan nan nan nan nan nan nan nan nan nan nan nan nan nan nan nan nan nan nan nan 0 0 nan nan nan nan nan nan nan nan nan nan
nan 0 1 0 0 1 nan 0 nan nan nan nan nan nan nan nan nan nan nan nan nan nan nan nan nan nan nan nan nan nan nan nan nan nan nan nan nan nan nan nan nan nan nan nan nan nan nan nan nan nan nan nan nan nan nan nan nan nan nan nan nan nan nan nan nan nan nan nan nan nan nan nan nan nan nan 0 nan nan nan nan nan nan nan nan nan nan
0 0 0 nan nan 0 nan nan nan nan nan nan nan nan nan nan nan nan nan nan nan nan nan nan nan nan nan nan nan nan nan nan nan nan nan nan nan nan nan nan nan nan nan nan nan nan nan nan nan nan nan nan nan nan nan nan nan nan nan nan nan nan nan nan nan nan nan nan nan nan nan nan nan nan nan nan nan nan nan nan nan nan nan nan nan nan
nan 0 nan nan nan nan nan nan nan nan nan nan nan nan nan nan nan nan nan nan nan nan nan nan nan nan nan nan nan nan nan nan nan nan nan nan nan nan nan nan nan nan nan nan nan nan nan nan nan nan nan nan nan nan nan nan nan nan nan nan nan nan nan nan nan nan nan nan nan nan nan nan nan nan nan nan nan nan nan nan nan nan nan nan nan nan
nan nan nan nan nan nan nan nan nan nan nan nan nan nan nan nan nan nan nan nan nan nan nan nan nan nan nan nan nan nan nan nan nan nan nan nan nan nan nan nan nan nan nan nan nan nan nan nan nan nan nan nan nan nan nan nan nan nan nan nan nan nan nan nan nan nan nan nan nan nan nan nan nan nan nan nan nan nan nan nan nan nan nan nan nan nan
nan nan nan nan nan nan nan nan nan nan nan nan nan nan nan nan nan nan nan nan nan nan nan nan nan nan nan nan nan nan nan nan nan nan nan nan nan nan nan nan nan nan nan nan nan nan nan nan nan nan nan nan nan nan nan nan nan nan nan nan nan nan nan nan nan nan nan nan nan nan nan nan nan nan nan nan nan nan nan 0 0 0 0 0 0 nan
nan nan nan nan nan nan nan nan nan nan nan nan nan nan nan nan nan nan nan nan nan nan nan nan nan nan nan nan nan nan nan nan nan nan nan nan nan nan nan nan nan nan nan nan nan nan nan nan nan nan nan nan nan nan nan nan nan nan nan nan nan 0 nan nan nan nan nan nan nan nan nan nan nan nan nan nan nan nan nan nan nan 1 2 2 2 1
nan nan nan nan nan nan nan nan nan nan nan nan nan nan nan nan nan nan nan nan nan nan nan nan nan nan nan nan nan nan nan nan nan nan nan nan nan nan nan nan nan nan nan nan nan nan nan nan nan nan nan nan nan nan nan nan nan nan nan nan nan 0 nan nan nan nan nan nan 0 0 nan nan nan nan nan nan nan nan nan nan nan 1 2 2 2 3
nan nan nan nan nan nan nan nan nan nan nan nan nan nan nan nan nan nan nan nan nan nan nan nan nan nan nan nan nan nan nan nan nan nan nan nan nan nan nan nan nan nan nan nan nan nan nan nan nan nan nan nan nan nan nan nan nan nan nan nan nan 0 nan nan nan nan nan 0 1 1 0 0 nan nan nan nan nan nan nan nan nan 0 2 2 2 2
nan nan nan nan nan nan nan nan nan nan nan nan nan nan nan nan nan nan nan nan nan nan nan nan nan nan nan nan nan nan nan nan nan nan nan nan nan nan nan nan nan nan nan nan nan nan nan nan nan nan nan nan nan nan nan nan nan nan nan 0 0 0 nan nan nan nan 0 1 1 1 1 1 0 0 0 0 nan nan nan nan nan 0 1 2 2 2
nan nan nan nan nan nan nan nan nan nan nan nan nan nan nan nan nan nan nan nan nan nan nan nan nan nan nan nan nan nan nan nan nan nan nan nan nan nan nan nan nan nan nan nan nan nan nan nan nan nan nan nan nan nan nan nan nan nan nan 0 0 1 1 1 1 2 2 2 2 2 1 2 2 2 2 2 2 2 1 0 0 0 1 1 1 1
nan nan nan nan nan nan nan nan nan nan nan nan nan nan nan nan nan nan nan nan nan nan nan nan nan nan nan nan nan nan nan nan nan nan nan nan nan nan nan nan nan nan nan nan nan nan nan nan nan nan nan nan nan nan nan nan nan nan 0 1 1 1 1 1 1 2 2 2 2 2 2 2 2 2 2 2 2 2 2 2 2 1 0 nan nan 0
nan nan nan nan nan nan nan nan nan nan nan nan nan nan nan nan nan nan nan nan nan nan nan nan nan nan nan nan nan nan nan nan nan nan nan nan nan nan nan nan nan nan nan nan nan nan nan nan nan nan nan nan nan nan nan nan nan nan 2 2 2 2 1 1 1 1 1 1 1 1 1 2 2 2 2 2 2 2 2 1 1 1 0 nan nan nan
nan nan nan nan nan nan nan nan nan nan nan nan nan nan nan nan nan nan nan nan nan nan nan nan nan nan nan nan nan nan nan nan nan nan nan nan nan nan nan nan nan nan nan nan nan nan nan nan nan nan nan nan nan nan nan nan nan nan 2 2 2 1 0 0 0 0 0 0 0 0 0 1 1 1 2 2 2 2 2 1 1 1 1 1 1 2
nan 0 0 0 0 0 0 0 nan nan nan nan nan nan nan nan nan nan nan nan nan nan nan nan nan nan nan nan nan nan nan nan nan nan nan nan nan nan nan nan nan nan nan nan nan nan nan nan nan nan nan nan nan nan nan nan nan nan 0 2 2 1 0 nan nan nan nan nan 0 0 0 0 1 1 1 2 2 2 1 1 1 1 0 0 0 0
1 2 1 1 1 1 0 0 0 0 nan nan nan nan nan nan nan nan nan nan nan nan nan nan nan nan nan nan nan nan nan nan nan nan nan nan nan nan nan nan nan nan nan nan nan nan nan nan nan nan nan nan nan nan nan nan nan nan nan 1 1 1 nan nan nan nan nan nan nan nan nan 0 1 1 1 1 1 1 1 0 0 1 0 nan nan nan
nan nan nan nan nan nan nan nan 0 0 0 nan nan nan nan nan nan nan nan nan nan nan nan nan nan nan nan nan nan nan nan nan nan nan nan nan nan nan nan nan nan nan nan nan nan nan nan nan nan nan nan nan nan nan nan nan nan nan nan nan nan nan nan nan nan nan nan nan nan nan nan nan nan nan nan nan 0 0 0 nan nan 1 0 nan nan nan
nan nan nan nan nan nan nan nan nan nan nan nan nan nan nan nan nan nan nan nan nan nan nan nan nan nan nan nan nan nan nan nan nan nan nan nan nan nan nan nan nan nan nan nan nan nan nan nan nan nan nan nan nan nan nan nan nan nan nan nan nan nan nan nan nan nan nan nan nan nan nan nan nan nan nan nan nan nan nan nan nan nan 0 0 0 nan
nan nan nan nan nan nan nan nan nan nan nan nan nan nan nan nan nan nan nan nan nan nan nan nan nan nan nan nan nan nan nan nan nan nan nan nan nan nan nan nan nan nan nan nan nan nan nan nan nan nan nan nan nan nan nan nan nan nan nan nan nan nan nan nan nan nan nan nan nan nan nan nan nan nan nan nan nan nan nan nan nan nan nan 1 1 nan
nan nan nan nan nan nan nan nan nan nan nan nan nan nan nan nan nan nan nan nan nan nan nan nan nan nan nan nan nan nan nan nan nan nan nan nan nan nan nan nan nan nan nan nan nan nan nan nan nan nan nan nan nan nan nan nan nan nan nan nan nan nan nan nan nan nan nan nan nan nan nan nan nan nan nan nan nan nan nan nan nan nan 0 2 2 1
nan nan nan nan nan nan nan nan nan nan nan nan nan nan nan nan nan nan nan nan nan nan nan nan nan nan nan nan nan nan nan nan nan nan nan nan nan nan nan nan nan nan nan nan nan nan nan nan nan nan nan nan nan nan nan nan nan nan nan nan nan nan nan nan nan nan nan nan nan nan nan nan nan nan nan nan nan nan nan nan nan 0 1 3 3 5
nan nan nan nan nan nan nan nan nan nan nan nan nan nan nan nan nan nan nan nan nan nan nan nan nan nan nan nan nan nan nan nan nan nan nan nan nan nan nan nan nan nan nan nan nan nan nan nan nan nan nan nan nan nan nan nan nan nan nan nan nan nan nan nan nan nan nan nan nan nan nan nan nan nan nan nan nan nan nan nan nan 0 1 3 3 3
nan nan nan nan nan nan nan nan nan nan nan nan nan nan nan nan nan nan nan nan nan nan nan nan nan nan nan nan nan nan nan nan nan nan nan nan nan nan nan nan nan nan nan nan nan nan nan nan nan nan nan nan nan nan nan nan nan nan nan nan nan nan nan nan nan nan nan nan nan nan nan nan nan nan nan nan nan nan nan nan nan nan nan nan nan 0
nan nan nan nan nan nan nan nan nan nan nan nan nan nan nan nan nan nan nan nan nan nan nan nan nan nan nan nan nan nan nan nan nan nan nan nan nan nan nan nan nan nan nan nan nan nan nan nan nan nan nan nan nan nan nan nan nan nan nan nan nan nan nan nan nan nan nan nan nan nan nan nan nan nan nan nan nan nan nan nan nan nan nan nan nan nan
nan nan nan nan nan nan nan nan nan nan nan nan nan nan nan nan nan nan nan nan nan nan nan nan nan nan nan nan nan nan nan nan nan nan nan nan nan nan nan nan nan nan nan nan nan nan nan nan nan nan nan nan nan nan nan nan nan nan nan nan nan nan nan nan nan nan nan nan nan nan nan nan nan nan nan nan nan nan nan nan nan nan nan nan nan nan
nan nan nan nan nan nan nan nan nan nan nan nan nan nan nan nan nan nan nan nan nan nan nan nan nan nan nan nan nan nan nan nan nan nan nan nan nan nan nan nan nan nan nan nan nan nan nan nan nan nan nan nan nan nan nan nan nan nan nan nan nan nan nan nan nan nan nan nan nan nan nan nan nan nan nan nan nan nan nan nan nan nan nan nan nan nan
nan nan nan nan nan nan nan nan nan nan nan nan nan nan nan nan nan nan nan nan nan nan nan nan nan nan nan nan nan nan nan nan nan nan nan nan nan nan nan nan nan nan nan nan nan nan nan nan nan nan nan nan nan nan nan nan nan nan nan nan nan nan nan nan nan nan nan nan nan nan nan nan nan nan nan nan nan nan nan nan nan nan nan nan nan nan
nan nan nan nan nan nan nan nan nan nan nan nan nan nan nan nan nan nan nan nan nan nan nan nan nan nan nan nan nan nan nan nan nan nan nan nan nan nan nan nan nan nan nan nan nan nan nan nan nan nan nan nan nan nan nan nan nan nan nan nan nan nan nan nan nan nan nan nan nan nan nan nan nan nan nan nan nan nan nan nan nan nan nan nan nan nan
nan nan nan nan nan nan nan nan nan nan nan nan nan nan nan nan nan nan nan nan nan nan nan nan nan nan nan nan nan nan nan nan nan nan nan nan nan nan nan nan nan nan nan nan nan nan nan nan nan nan nan nan nan nan nan nan nan nan nan nan nan nan nan nan nan nan nan nan nan nan nan nan nan nan nan nan nan nan nan nan nan nan nan nan nan nan
nan nan nan nan nan nan nan nan nan nan nan nan nan nan nan nan nan nan nan nan nan nan nan nan nan nan nan nan nan nan nan nan nan nan nan nan nan nan nan nan nan nan nan nan nan nan nan nan nan nan nan nan nan nan nan nan nan nan nan nan nan nan nan nan nan nan nan nan nan nan nan nan nan nan nan nan nan nan nan nan nan nan nan nan nan nan
nan nan nan nan nan nan nan nan nan nan nan nan nan nan nan nan nan nan nan nan nan nan nan nan nan nan nan nan nan nan nan nan nan nan nan nan 0 0 nan nan nan nan nan nan nan nan nan nan nan nan nan nan nan nan nan nan nan nan nan nan nan nan nan nan nan nan nan nan nan nan nan nan nan nan nan nan nan nan nan nan nan nan nan nan nan nan
nan nan nan nan nan nan nan nan nan nan nan nan nan nan nan nan nan nan nan nan nan nan nan nan nan nan nan nan nan nan nan nan nan nan nan nan nan nan nan nan nan nan nan nan nan nan nan nan nan nan nan nan nan nan nan nan nan nan nan nan nan nan nan nan nan nan nan nan nan nan nan nan nan nan nan nan nan nan nan nan nan nan nan nan nan nan
nan nan nan nan nan nan nan nan nan nan nan nan nan nan nan nan nan nan nan nan nan nan nan nan nan nan nan nan nan nan nan nan nan nan nan nan nan nan nan nan nan nan nan nan nan nan nan nan nan nan nan nan nan nan nan nan nan nan nan nan nan nan nan nan nan nan nan nan nan nan nan nan nan nan nan nan nan nan nan nan nan nan nan nan nan nan
nan nan nan nan nan nan nan nan nan nan nan nan nan nan nan nan nan nan nan nan nan nan nan nan nan nan nan nan nan nan nan nan nan nan nan nan nan nan nan nan nan nan nan nan nan nan nan nan nan nan nan nan nan nan nan nan nan nan nan nan nan nan nan nan nan nan nan nan nan nan nan nan nan nan nan nan nan nan nan nan nan nan nan nan nan nan
nan nan nan nan nan nan nan nan nan nan nan nan nan nan nan nan nan nan nan nan nan nan nan nan nan nan nan nan nan nan nan nan nan nan nan nan nan nan nan nan nan nan nan nan nan nan nan nan nan nan nan nan nan nan nan nan nan nan nan nan nan nan nan nan nan nan nan nan nan nan nan nan nan nan nan nan nan nan nan nan nan nan nan nan nan nan
nan nan nan nan nan nan nan nan nan nan nan nan nan nan nan nan nan nan nan nan nan nan nan nan nan nan nan nan nan nan nan nan nan nan nan nan nan nan nan nan nan nan nan nan nan nan nan nan nan 0 nan nan nan nan nan nan nan nan nan nan nan nan nan nan nan nan nan nan nan nan nan nan nan nan nan nan nan nan nan nan nan nan nan nan nan nan
nan nan nan nan nan nan nan nan nan nan nan nan nan nan nan nan nan nan nan nan nan nan nan nan nan nan nan nan nan nan nan nan nan nan nan nan nan nan nan nan nan nan nan nan nan nan nan nan nan nan 0 1 nan nan nan nan nan nan nan nan nan nan nan nan nan nan nan nan nan nan nan nan nan nan nan 0 nan nan nan nan nan nan nan nan nan nan
CIN
-0 -0 -0 -0 -0 -0 -0 -0 -0 -0 -0 -0 -0 -0 -0 -0 -0 -0 -0 nan nan nan nan nan nan -0 -0 -0 -0 -0 -0 -0 -0 -0 -0 -0 -0 -0 -0 -0 -0 -0 -0 -0 -0 -0 -0 nan nan nan nan nan nan nan nan nan nan nan nan -0 -0 -0 -0 -0 -0 -0 -0 -0 -0 -0 -0 -0 nan nan nan nan nan nan nan -0 -0 -0 -0 -0 -0 -1
-0 -0 -0 -0 -0 -0 -0 -0 -0 -0 -0 -0 -0 -0 -0 -0 -0 -0 -0 nan nan nan nan nan nan -0 -0 -0 -0 -0 -0 -0 -0 -0 -0 -0 -0 -0 -0 -0 -0 -0 -0 -0 -0 -0 -0 nan nan nan nan nan nan nan nan nan nan nan nan nan nan nan nan nan nan nan nan nan nan nan nan nan nan nan nan nan nan nan nan -0 -0 -0 -0 -0 -0 -0
-0 -0 -0 -0 -0 -0 -0 -0 -0 -0 -0 -0 -0 -0 -0 -0 -0 -0 -0 -0 -0 nan nan -0 -0 nan nan -0 -0 -0 -0 -0 -0 -0 -0 -0 -0 -0 -0 -0 -0 -0 -0 -0 -0 -0 -0 nan nan nan nan nan nan nan nan nan nan nan nan nan nan nan nan nan nan nan nan nan nan nan nan nan nan nan nan nan nan nan -0 -0 -0 -0 -0 -0 -0 -0
-0 -0 -0 -0 -0 -0 -0 -0 -0 -0 -0 -0 -0 -0 -0 nan -0 -0 -0 -0 -0 nan nan nan nan nan nan nan -1 -1 -0 -0 -0 -0 -0 -0 -0 -0 -0 -0 -0 -0 -0 -0 -0 -0 -0 nan nan nan nan nan nan nan nan nan nan nan nan nan nan nan nan nan nan nan nan nan nan nan nan nan nan nan nan nan nan nan nan nan nan -1 -0 -0 -0 -0
-0 -0 -0 nan nan nan nan nan nan nan nan -0 -0 -0 nan nan -0 -0 -0 -0 -0 nan nan nan nan nan nan nan nan nan -0 -0 -0 -0 -0 -0 -0 -0 -0 -0 -0 -0 -0 -0 -0 -0 -0 nan nan nan nan nan nan nan nan nan nan nan nan nan nan nan nan nan nan nan nan nan nan nan nan nan nan nan nan nan nan nan nan nan nan nan nan nan nan -0
-0 -0 -0 nan nan nan nan -0 nan nan nan nan nan nan nan -0 -0 -0 -0 -0 -0 -0 -0 nan nan nan nan nan -0 -0 -0 -0 -0 -0 -0 -0 -0 -0 -0 -0 -0 -0 -0 -0 -0 -0 -0 nan nan nan nan nan nan nan nan nan nan nan nan nan nan nan nan nan nan nan nan nan nan nan nan nan nan nan nan nan nan nan nan nan nan nan nan nan nan -0
-0 -0 -1 nan nan -0 -0 -0 -0 -0 -0 -0 -0 -0 -0 -0 -0 -0 -0 -0 -0 -0 -0 nan nan nan nan nan -2 -2 -5 -1 -0 -0 -0 -0 -0 -0 -0 -0 -0 -0 -0 -0 -0 -0 -0 nan nan nan nan nan nan nan nan nan nan nan nan nan nan nan nan nan nan nan nan nan nan nan nan nan nan nan nan nan nan nan nan nan nan nan nan nan nan -0
-0 -0 -0 -0 -0 -0 -0 -0 -0 -0 -0 -0 -0 -0 -0 -0 -0 -0 -0 nan nan nan nan nan nan nan nan nan nan nan nan nan nan nan nan -0 -0 -0 -0 -0 -0 -0 -0 -0 -0 nan nan nan nan nan nan nan nan nan nan nan nan nan nan nan nan nan nan nan nan nan nan nan nan nan nan nan nan nan nan nan nan nan nan nan nan nan nan nan nan -0
-0 -0 -0 -0 -0 -0 -0 -0 nan nan nan -0 -0 -0 -0 -0 -0 -0 -0 -0 -0 nan nan nan nan nan nan nan nan nan nan nan nan nan nan nan nan nan -0 -0 -0 -0 -0 nan nan nan nan nan nan nan nan nan nan nan nan nan nan nan nan nan nan nan nan nan nan nan nan nan nan nan nan nan nan nan nan nan nan nan nan nan nan nan nan nan nan nan
-0 -0 -0 -0 -0 nan -0 -0 nan nan nan nan nan nan nan -0 -0 -0 -0 -0 -0 nan nan nan nan nan nan nan nan nan nan nan nan nan nan nan nan nan nan nan nan nan nan nan nan nan nan nan nan nan nan nan nan nan nan nan nan nan nan nan nan nan nan nan nan nan nan nan nan nan nan nan nan nan nan nan nan nan nan nan nan nan nan nan nan nan
-0 -0 -0 -0 -0 -0 nan nan nan nan nan nan nan nan nan nan -0 -0 -0 -0 -0 nan nan nan nan nan nan nan nan nan nan nan nan nan nan nan nan nan nan nan nan nan nan nan nan nan nan nan nan nan nan nan nan nan nan nan nan nan nan nan nan nan nan nan nan nan nan nan nan nan nan nan nan nan nan nan nan nan nan nan nan nan nan nan nan nan
nan nan nan -0 -0 -0 nan nan nan nan -0 -0 -0 -0 -0 nan nan nan -0 -0 -0 nan nan nan nan nan nan nan nan nan nan nan nan nan nan nan nan nan nan nan nan nan nan nan nan nan nan nan nan nan nan nan nan nan nan nan nan nan nan nan nan nan nan nan nan nan nan nan nan nan nan nan nan nan -0 nan nan nan nan nan nan nan nan nan nan nan
nan nan nan -0 -0 nan nan -0 -0 -0 -0 -0 -0 -0 -0 nan nan nan nan nan nan nan nan nan nan nan nan nan nan nan nan nan nan nan nan nan nan nan nan nan nan nan nan nan nan nan nan nan nan nan nan nan nan nan nan nan nan nan nan nan nan nan nan nan nan nan nan nan nan nan nan nan nan nan -0 -0 nan nan nan nan nan nan nan nan nan nan
nan nan -0 -0 -0 -0 -0 -0 -0 -0 -0 -0 nan nan nan nan nan nan nan nan nan nan nan nan nan nan nan nan nan nan nan nan nan nan nan nan nan nan nan nan nan nan nan nan nan nan nan nan nan nan nan nan nan nan nan nan nan nan nan nan nan nan nan nan nan nan nan nan nan nan nan nan nan nan -0 -0 nan nan nan nan nan nan nan nan nan nan
nan nan -0 -0 -0 nan -0 nan nan nan nan nan nan nan nan nan nan nan nan nan nan nan nan nan nan nan nan nan nan nan nan nan nan nan nan nan nan nan nan nan nan nan nan nan nan nan nan nan nan nan nan nan nan nan nan nan nan nan nan nan nan nan nan nan nan nan nan nan nan nan nan nan nan nan -0 -0 nan nan nan nan nan nan nan nan nan nan
nan -0 -0 -0 -0 -0 nan -0 nan nan nan nan nan nan nan nan nan nan nan nan nan nan nan nan nan nan nan nan nan nan nan nan nan nan nan nan nan nan nan nan nan nan nan nan nan nan nan nan nan nan nan nan nan nan nan nan nan nan nan nan nan nan nan nan nan nan nan nan nan nan nan nan nan nan nan -0 nan nan nan nan nan nan nan nan nan nan
-0 -0 -0 nan nan -0 nan nan nan nan nan nan nan nan nan nan nan nan nan nan nan nan nan nan nan nan nan nan nan nan nan nan nan nan nan nan nan nan nan nan nan nan nan nan nan nan nan nan nan nan nan nan nan nan nan nan nan nan nan nan nan nan nan nan nan nan nan nan nan nan nan nan nan nan nan nan nan nan nan nan nan nan nan nan nan nan
nan -0 nan nan nan nan nan nan nan nan nan nan nan nan nan nan nan nan nan nan nan nan nan nan nan nan nan nan nan nan nan nan nan nan nan nan nan nan nan nan nan nan nan nan nan nan nan nan nan nan nan nan nan nan nan nan nan nan nan nan nan nan nan nan nan nan nan nan nan nan nan nan nan nan nan nan nan nan nan nan nan nan nan nan nan nan
nan nan nan nan nan nan nan nan nan nan nan nan nan nan nan nan nan nan nan nan nan nan nan nan nan nan nan nan nan nan nan nan nan nan nan nan nan nan nan nan nan nan nan nan nan nan nan nan nan nan nan nan nan nan nan nan nan nan nan nan nan nan nan nan nan nan nan nan nan nan nan nan nan nan nan nan nan nan nan nan nan nan nan nan nan nan
nan nan nan nan nan nan nan nan nan nan nan nan nan nan nan nan nan nan nan nan nan nan nan nan nan nan nan nan nan nan nan nan nan nan nan nan nan nan nan nan nan nan nan nan nan nan nan nan nan nan nan nan nan nan nan nan nan nan nan nan nan nan nan nan nan nan nan nan nan nan nan nan nan nan nan nan nan nan nan -0 -0 -0 -0 -0 -0 nan
nan nan nan nan nan nan nan nan nan nan nan nan nan nan nan nan nan nan nan nan nan nan nan nan nan nan nan nan nan nan nan nan nan nan nan nan nan nan nan nan nan nan nan nan nan nan nan nan nan nan nan nan nan nan nan nan nan nan nan nan nan -0 nan nan nan nan nan nan nan nan nan nan nan nan nan nan nan nan nan nan nan -0 -0 -0 -0 -0
nan nan nan nan nan nan nan nan nan nan nan nan nan nan nan nan nan nan nan nan nan nan nan nan nan nan nan nan nan nan nan nan nan nan nan nan nan nan nan nan nan nan nan nan nan nan nan nan nan nan nan nan nan nan nan nan nan nan nan nan nan -0 nan nan nan nan nan nan -0 -0 nan nan nan nan nan nan nan nan nan nan nan -0 -0 -0 -0 -0
nan nan nan nan nan nan nan nan nan nan nan nan nan nan nan nan nan nan nan nan nan nan nan nan nan nan nan nan nan nan nan nan nan nan nan nan nan nan nan nan nan nan nan nan nan nan nan nan nan nan nan nan nan nan nan nan nan nan nan nan nan -0 nan nan nan nan nan -0 -0 -0 -0 -0 nan nan nan nan nan nan nan nan nan -0 -0 -0 -0 -0
nan nan nan nan nan nan nan nan nan nan nan nan nan nan nan nan nan nan nan nan nan nan nan nan nan nan nan nan nan nan nan nan nan nan nan nan nan nan nan nan nan nan nan nan nan nan nan nan nan nan nan nan nan nan nan nan nan nan nan -0 -0 -0 nan nan nan nan -0 -0 -0 -0 -0 -0 -0 -0 -0 -0 nan nan nan nan nan -0 -0 -0 -0 -0
nan nan nan nan nan nan nan nan nan nan nan nan nan nan nan nan nan nan nan nan nan nan nan nan nan nan nan nan nan nan nan nan nan nan nan nan nan nan nan nan nan nan nan nan nan nan nan nan nan nan nan nan nan nan nan nan nan nan nan -0 -0 -0 -0 -0 -0 -0 -0 -0 -0 -0 -0 -0 -0 -0 -0 -0 -0 -0 -0 -0 -0 -0 -0 -0 -0 -0
nan nan nan nan nan nan nan nan nan nan nan nan nan nan nan nan nan nan nan nan nan nan nan nan nan nan nan nan nan nan nan nan nan nan nan nan nan nan nan nan nan nan nan nan nan nan nan nan nan nan nan nan nan nan nan nan nan nan -0 -0 -0 -0 -0 -0 -0 -0 -0 -0 -0 -0 -0 -0 -0 -0 -0 -0 -0 -0 -0 -0 -0 -0 -0 nan nan -0
nan nan nan nan nan nan nan nan nan nan nan nan nan nan nan nan nan nan nan nan nan nan nan nan nan nan nan nan nan nan nan nan nan nan nan nan nan nan nan nan nan nan nan nan nan nan nan nan nan nan nan nan nan nan nan nan nan nan -0 -0 -0 -0 -0 -0 -0 -0 -0 -0 -0 -0 -0 -0 -0 -0 -0 -0 -0 -0 -0 -0 -0 -0 -0 nan nan nan
nan nan nan nan nan nan nan nan nan nan nan nan nan nan nan nan nan nan nan nan nan nan nan nan nan nan nan nan nan nan nan nan nan nan nan nan nan nan nan nan nan nan nan nan nan nan nan nan nan nan nan nan nan nan nan nan nan nan -2 -0 -0 -0 -0 -0 -0 -0 -0 -0 -0 -0 -0 -0 -0 -0 -0 -0 -0 -0 -0 -0 -0 -0 -0 -0 -0 -0
nan -0 -0 -0 -0 -0 -0 -0 nan nan nan nan nan nan nan nan nan nan nan nan nan nan nan nan nan nan nan nan nan nan nan nan nan nan nan nan nan nan nan nan nan nan nan nan nan nan nan nan nan nan nan nan nan nan nan nan nan nan -15 -0 -0 -0 -0 nan nan nan nan nan -0 -0 -0 -0 -0 -0 -0 -0 -0 -0 -0 -0 -0 -0 -0 -0 -0 -0
-0 -0 -0 -0 -0 -0 -0 -0 -0 -0 nan nan nan nan nan nan nan nan nan nan nan nan nan nan nan nan nan nan nan nan nan nan nan nan nan nan nan nan nan nan nan nan nan nan nan nan nan nan nan nan nan nan nan nan nan nan nan nan nan -0 -0 -0 nan nan nan nan nan nan nan nan nan -0 -0 -0 -0 -0 -0 -0 -0 -0 -0 -0 -0 nan nan nan
nan nan nan nan nan nan nan nan -0 -0 -0 nan nan nan nan nan nan nan nan nan nan nan nan nan nan nan nan nan nan nan nan nan nan nan nan nan nan nan nan nan nan nan nan nan nan nan nan nan nan nan nan nan nan nan nan nan nan nan nan nan nan nan nan nan nan nan nan nan nan nan nan nan nan nan nan nan -0 -0 -0 nan nan -0 -0 nan nan nan
nan nan nan nan nan nan nan nan nan nan nan nan nan nan nan nan nan nan nan nan nan nan nan nan nan nan nan nan nan nan nan nan nan nan nan nan nan nan nan nan nan nan nan nan nan nan nan nan nan nan nan nan nan nan nan nan nan nan nan nan nan nan nan nan nan nan nan nan nan nan nan nan nan nan nan nan nan nan nan nan nan nan -0 -0 -0 nan
nan nan nan nan nan nan nan nan nan nan nan nan nan nan nan nan nan nan nan nan nan nan nan nan nan nan nan nan nan nan nan nan nan nan nan nan nan nan nan nan nan nan nan nan nan nan nan nan nan nan nan nan nan nan nan nan nan nan nan nan nan nan nan nan nan nan nan nan nan nan nan nan nan nan nan nan nan nan nan nan nan nan nan -0 -0 nan
nan nan nan nan nan nan nan nan nan nan nan nan nan nan nan nan nan nan nan nan nan nan nan nan nan nan nan nan nan nan nan nan nan nan nan nan nan nan nan nan nan nan nan nan nan nan nan nan nan nan nan nan nan nan nan nan nan nan nan nan nan nan nan nan nan nan nan nan nan nan nan nan nan nan nan nan nan nan nan nan nan nan -0 -0 -0 -0
nan nan nan nan nan nan nan nan nan nan nan nan nan nan nan nan nan nan nan nan nan nan nan nan nan nan nan nan nan nan nan nan nan nan nan nan nan nan nan nan nan nan nan nan nan nan nan nan nan nan nan nan nan nan nan nan nan nan nan nan nan nan nan nan nan nan nan nan nan nan nan nan nan nan nan nan nan nan nan nan nan -0 -0 -0 -0 -0
nan nan nan nan nan nan nan nan nan nan nan nan nan nan nan nan nan nan nan nan nan nan nan nan nan nan nan nan nan nan nan nan nan nan nan nan nan nan nan nan nan nan nan nan nan nan nan nan nan nan nan nan nan nan nan nan nan nan nan nan nan nan nan nan nan nan nan nan nan nan nan nan nan nan nan nan nan nan nan nan nan -0 -0 -0 -0 -3
nan nan nan nan nan nan nan nan nan nan nan nan nan nan nan nan nan nan nan nan nan nan nan nan nan nan nan nan nan nan nan nan nan nan nan nan nan nan nan nan nan nan nan nan nan nan nan nan nan nan nan nan nan nan nan nan nan nan nan nan nan nan nan nan nan nan nan nan nan nan nan nan nan nan nan nan nan nan nan nan nan nan nan nan nan -0
nan nan nan nan nan nan nan nan nan nan nan nan nan nan nan nan nan nan nan nan nan nan nan nan nan nan nan nan nan nan nan nan nan nan nan nan nan nan nan nan nan nan nan nan nan nan nan nan nan nan nan nan nan nan nan nan nan nan nan nan nan nan nan nan nan nan nan nan nan nan nan nan nan nan nan nan nan nan nan nan nan nan nan nan nan nan
nan nan nan nan nan nan nan nan nan nan nan nan nan nan nan nan nan nan nan nan nan nan nan nan nan nan nan nan nan nan nan nan nan nan nan nan nan nan nan nan nan nan nan nan nan nan nan nan nan nan nan nan nan nan nan nan nan nan nan nan nan nan nan nan nan nan nan nan nan nan nan nan nan nan nan nan nan nan nan nan nan nan nan nan nan nan
nan nan nan nan nan nan nan nan nan nan nan nan nan nan nan nan nan nan nan nan nan nan nan nan nan nan nan nan nan nan nan nan nan nan nan nan nan nan nan nan nan nan nan nan nan nan nan nan nan nan nan nan nan nan nan nan nan nan nan nan nan nan nan nan nan nan nan nan nan nan nan nan nan nan nan nan nan nan nan nan nan nan nan nan nan nan
nan nan nan nan nan nan nan nan nan nan nan nan nan nan nan nan nan nan nan nan nan nan nan nan nan nan nan nan nan nan nan nan nan nan nan nan nan nan nan nan nan nan nan nan nan nan nan nan nan nan nan nan nan nan nan nan nan nan nan nan nan nan nan nan nan nan nan nan nan nan nan nan nan nan nan nan nan nan nan nan nan nan nan nan nan nan
nan nan nan nan nan nan nan nan nan nan nan nan nan nan nan nan nan nan nan nan nan nan nan nan nan nan nan nan nan nan nan nan nan nan nan nan nan nan nan nan nan nan nan nan nan nan nan nan nan nan nan nan nan nan nan nan nan nan nan nan nan nan nan nan nan nan nan nan nan nan nan nan nan nan nan nan nan nan nan nan nan nan nan nan nan nan
nan nan nan nan nan nan nan nan nan nan nan nan nan nan nan nan nan nan nan nan nan nan nan nan nan nan nan nan nan nan nan nan nan nan nan nan nan nan nan nan nan nan nan nan nan nan nan nan nan nan nan nan nan nan nan nan nan nan nan nan nan nan nan nan nan nan nan nan nan nan nan nan nan nan nan nan nan nan nan nan nan nan nan nan nan nan
nan nan nan nan nan nan nan nan nan nan nan nan nan nan nan nan nan nan nan nan nan nan nan nan nan nan nan nan nan nan nan nan nan nan nan nan nan nan nan nan nan nan nan nan nan nan nan nan nan nan nan nan nan nan nan nan nan nan nan nan nan nan nan nan nan nan nan nan nan nan nan nan nan nan nan nan nan nan nan nan nan nan nan nan nan nan
nan nan nan nan nan nan nan nan nan nan nan nan nan nan nan nan nan nan nan nan nan nan nan nan nan nan nan nan nan nan nan nan nan nan nan nan -0 -0 nan nan nan nan nan nan nan nan nan nan nan nan nan nan nan nan nan nan nan nan nan nan nan nan nan nan nan nan nan nan nan nan nan nan nan nan nan nan nan nan nan nan nan nan nan nan nan nan
nan nan nan nan nan nan nan nan nan nan nan nan nan nan nan nan nan nan nan nan nan nan nan nan nan nan nan nan nan nan nan nan nan nan nan nan nan nan nan nan nan nan nan nan nan nan nan nan nan nan nan nan nan nan nan nan nan nan nan nan nan nan nan nan nan nan nan nan nan nan nan nan nan nan nan nan nan nan nan nan nan nan nan nan nan nan
nan nan nan nan nan nan nan nan nan nan nan nan nan nan nan nan nan nan nan nan nan nan nan nan nan nan nan nan nan nan nan nan nan nan nan nan nan nan nan nan nan nan nan nan nan nan nan nan nan nan nan nan nan nan nan nan nan nan nan nan nan nan nan nan nan nan nan nan nan nan nan nan nan nan nan nan nan nan nan nan nan nan nan nan nan nan
nan nan nan nan nan nan nan nan nan nan nan nan nan nan nan nan nan nan nan nan nan nan nan nan nan nan nan nan nan nan nan nan nan nan nan nan nan nan nan nan nan nan nan nan nan nan nan nan nan nan nan nan nan nan nan nan nan nan nan nan nan nan nan nan nan nan nan nan nan nan nan nan nan nan nan nan nan nan nan nan nan nan nan nan nan nan
nan nan nan nan nan nan nan nan nan nan nan nan nan nan nan nan nan nan nan nan nan nan nan nan nan nan nan nan nan nan nan nan nan nan nan nan nan nan nan nan nan nan nan nan nan nan nan nan nan nan nan nan nan nan nan nan nan nan nan nan nan nan nan nan nan nan nan nan nan nan nan nan nan nan nan nan nan nan nan nan nan nan nan nan nan nan
nan nan nan nan nan nan nan nan nan nan nan nan nan nan nan nan nan nan nan nan nan nan nan nan nan nan nan nan nan nan nan nan nan nan nan nan nan nan nan nan nan nan nan nan nan nan nan nan nan -0 nan nan nan nan nan nan nan nan nan nan nan nan nan nan nan nan nan nan nan nan nan nan nan nan nan nan nan nan nan nan nan nan nan nan nan nan
nan nan nan nan nan nan nan nan nan nan nan nan nan nan nan nan nan nan nan nan nan nan nan nan nan nan nan nan nan nan nan nan nan nan nan nan nan nan nan nan nan nan nan nan nan nan nan nan nan nan -0 -0 nan nan nan nan nan nan nan nan nan nan nan nan nan nan nan nan nan nan nan nan nan nan nan -0 nan nan nan nan nan nan nan nan nan nan
Wind_Speed
2 2 4 6 6 5 5 6 7 6 5 4 4 4 4 4 4 4 5 4 4 4 4 4 4 4 6 8 10 10 10 10 10 10 10 9 9 8 8 8 8 8 9 9 10 10 10 10 10 10 10 9 9 9 9 9 9 8 8 8 8 8 8 8 8 8 8 8 8 7 7 6 6 5 5 5 5 5 5 5 4 4 4 4 4 4
2 3 3 6 6 6 4 6 7 6 6 5 5 4 4 4 4 3 3 4 4 4 3 3 3 3 4 5 7 9 9 9 9 9 9 9 9 9 8 8 8 9 9 9 9 9 9 9 9 9 9 9 9 9 8 8 8 8 8 8 8 8 8 8 8 8 8 7 7 7 6 6 5 5 5 5 5 5 4 4 4 4 4 4 4 4
3 3 4 5 6 5 4 5 6 5 6 6 5 5 5 5 4 3 3 3 3 3 3 3 3 3 3 3 5 7 8 8 8 9 9 9 9 9 9 9 9 9 9 9 9 9 8 8 8 8 8 8 8 8 7 7 7 7 7 7 7 7 7 7 7 7 7 7 6 6 5 5 5 5 5 5 5 4 4 4 4 4 4 4 4 4
3 3 4 4 4 4 4 4 4 4 5 5 5 5 6 5 4 3 3 2 2 2 3 3 3 3 2 2 2 5 7 8 8 8 8 9 9 9 9 9 9 9 9 9 8 8 8 8 7 7 7 7 7 7 6 6 6 6 6 6 6 7 7 7 7 6 6 6 6 5 5 5 5 4 4 5 4 4 4 4 3 4 4 4 4 4
3 3 3 3 2 2 3 3 4 4 4 4 4 4 5 4 3 3 3 3 3 2 2 3 3 3 2 1 1 3 6 7 8 8 8 9 9 9 9 9 9 9 9 9 8 8 7 7 7 7 7 6 6 6 6 5 5 5 5 6 6 6 6 6 6 6 5 5 5 5 4 4 4 4 4 4 4 4 4 3 3 3 3 3 3 4
3 3 3 2 2 2 2 3 4 4 4 4 4 4 4 3 3 3 3 3 3 2 2 2 3 3 2 2 2 3 5 7 8 8 8 8 9 9 9 9 10 9 9 9 8 7 7 6 6 6 6 6 6 5 5 5 5 5 5 5 5 5 5 5 5 5 5 4 4 4 4 4 4 3 3 3 3 3 3 3 3 2 2 2 3 3
3 2 2 2 2 2 2 3 3 4 4 3 3 3 3 3 3 3 3 2 2 2 2 2 2 2 3 3 4 4 5 5 6 7 7 8 9 9 9 9 9 9 9 8 7 7 6 6 5 5 5 5 5 5 5 5 5 5 5 4 4 4 4 4 4 4 4 4 3 3 3 3 3 3 3 3 3 3 3 3 2 2 2 2 2 3
4 3 3 2 2 2 2 2 2 3 4 4 4 3 3 3 3 3 3 3 2 2 2 2 2 2 3 3 4 4 5 4 4 4 5 6 7 8 8 9 9 9 8 7 7 6 5 5 5 5 5 5 5 5 5 5 4 4 4 3 3 3 3 3 3 3 3 3 3 3 3 3 2 2 2 2 2 2 2 2 2 2 2 2 2 2
5 4 3 3 3 3 2 2 1 1 2 3 4 4 4 4 3 3 3 2 2 1 1 2 3 2 2 3 3 4 4 5 5 5 4 4 4 5 6 7 8 8 7 6 6 5 5 4 4 5 5 5 5 5 4 4 4 3 3 2 2 2 2 2 2 3 3 3 3 2 2 2 2 2 2 2 2 2 2 2 2 3 3 2 2 2
5 5 4 3 3 3 3 2 1 1 0 1 2 3 3 5 5 4 3 2 1 1 1 2 2 3 2 2 3 3 4 5 6 7 7 7 6 6 6 6 6 6 6 5 5 4 4 4 4 4 4 5 4 4 4 3 3 2 1 1 1 1 1 2 2 2 2 2 2 2 2 2 2 2 2 2 2 1 2 2 2 2 3 3 3 2
4 4 4 3 2 1 2 2 2 1 1 2 2 2 1 3 4 5 5 4 3 1 1 1 2 2 2 2 2 3 3 4 5 6 7 8 8 7 7 7 6 6 6 5 4 4 4 3 4 4 4 4 4 3 3 2 1 1 0 0 0 0 1 1 1 2 2 2 2 2 2 2 2 2 2 2 2 2 2 2 2 2 2 2 2 2
4 3 3 3 2 2 2 2 2 2 2 3 3 2 1 1 2 3 6 6 5 4 2 1 1 1 1 1 1 2 2 2 3 3 4 5 5 5 5 5 5 5 5 5 5 4 4 4 3 3 4 3 3 3 2 1 0 0 1 1 1 0 0 0 1 1 1 2 2 2 2 2 2 2 2 2 2 2 2 2 2 2 2 2 2 2
3 3 3 3 3 3 3 3 2 2 3 4 5 5 5 2 1 1 3 4 4 4 3 2 1 1 1 1 1 1 1 1 2 2 2 2 3 3 3 2 2 3 3 3 3 3 4 4 3 3 3 3 3 2 2 1 1 1 1 2 1 1 1 0 1 1 1 1 2 2 2 2 2 2 2 2 3 3 3 3 3 2 2 2 2 2
3 3 3 3 4 4 4 4 4 5 5 5 5 4 4 3 2 2 2 3 3 2 2 2 2 1 1 1 1 1 1 1 1 1 2 2 2 2 2 1 1 1 1 1 1 2 3 3 3 2 3 3 2 2 1 1 1 2 2 2 2 2 1 1 0 1 1 1 1 1 1 2 2 2 2 2 3 3 3 3 3 3 2 2 2 2
4 4 4 4 4 4 4 5 5 6 6 3 2 2 3 3 3 3 3 4 3 2 2 2 2 1 1 1 1 1 0 0 1 1 1 1 1 2 2 1 1 1 1 1 1 1 2 2 2 1 1 1 1 0 1 1 2 2 2 2 2 2 1 1 0 0 1 1 1 1 1 1 1 1 2 2 2 3 3 3 3 3 2 2 2 2
4 4 5 5 5 4 4 5 5 4 4 3 2 3 4 4 4 4 4 5 4 3 3 3 3 2 1 1 1 1 0 0 1 2 2 1 1 1 2 1 1 1 1 1 1 1 1 1 1 1 1 1 1 1 2 2 2 3 3 3 2 2 1 1 0 0 1 1 1 1 1 1 1 1 1 2 2 2 2 2 2 2 2 2 2 2
4 4 5 5 5 5 4 4 3 3 3 3 3 3 4 5 5 4 4 4 4 4 3 4 3 3 2 1 1 1 1 1 1 2 2 1 1 1 2 1 1 0 0 0 0 1 1 1 1 1 1 2 2 2 2 3 3 3 3 3 2 2 2 1 1 0 1 1 1 1 1 1 1 1 1 1 1 1 2 2 2 2 2 2 2 2
4 4 4 4 4 4 4 3 2 2 3 3 3 2 2 2 3 3 4 4 4 4 4 4 3 2 2 2 1 1 1 1 1 2 2 1 1 1 1 1 1 0 0 0 0 1 1 1 1 1 1 2 2 2 2 3 3 3 3 3 3 2 2 2 1 1 0 1 1 1 1 0 0 0 1 1 1 1 1 1 1 1 1 1 2 2
3 3 4 3 3 3 4 4 4 4 4 4 4 4 3 2 2 3 3 4 4 4 4 3 2 2 2 1 1 2 1 1 1 2 2 2 1 1 1 1 1 0 0 0 1 1 1 1 2 2 3 3 2 2 2 3 3 2 2 3 3 2 2 2 1 1 0 1 1 1 1 0 0 1 1 1 1 1 1 1 1 1 1 1 1 2
3 3 3 3 3 3 4 4 5 5 5 5 5 5 5 4 4 4 3 3 3 3 2 3 3 2 1 1 1 1 1 1 1 2 2 1 1 1 1 1 1 0 0 0 1 1 1 1 2 2 3 3 3 3 2 2 2 2 2 2 2 2 2 2 1 1 1 1 1 1 1 1 1 1 1 1 1 1 1 1 1 1 1 1 1 1
3 4 3 3 3 4 4 4 5 6 6 6 6 5 5 5 5 5 4 4 3 3 2 3 2 1 1 1 1 1 0 1 1 2 2 1 0 0 1 1 1 0 0 1 1 1 1 1 1 2 3 3 2 2 2 2 2 2 2 2 3 3 3 2 2 1 1 1 1 1 1 1 1 1 1 1 1 1 1 1 1 1 1 1 1 1
3 4 4 4 4 4 4 5 6 7 7 8 7 6 5 6 6 6 5 5 4 4 3 2 1 1 1 2 2 1 1 1 0 1 2 1 1 0 1 0 0 0 0 0 0 1 1 1 1 1 2 2 2 2 2 2 2 2 3 3 3 3 3 3 2 2 2 2 2 2 2 1 1 1 0 0 0 1 1 1 2 2 2 2 1 1
3 3 3 4 3 2 3 5 6 6 7 7 6 5 4 5 6 6 6 5 4 4 3 3 3 2 2 2 2 1 1 1 1 0 2 2 1 1 1 0 0 0 0 0 1 1 1 1 1 1 2 3 3 2 2 3 3 3 3 3 3 4 4 3 3 3 3 2 2 2 2 2 1 1 1 0 1 1 1 2 2 2 2 2 2 2
2 2 3 3 3 2 3 4 5 5 4 3 3 2 2 2 3 3 4 4 4 4 4 4 4 3 2 2 2 1 1 1 1 0 1 1 1 1 1 0 0 0 1 1 1 1 1 1 1 1 1 3 3 3 3 3 4 4 4 4 4 4 4 4 4 4 3 3 3 3 2 2 2 2 1 1 1 1 2 2 2 3 3 3 3 3
1 2 3 3 3 4 4 5 6 6 5 4 4 4 4 5 5 5 5 5 5 5 5 4 3 2 1 1 1 1 1 1 1 1 1 1 1 1 1 0 0 0 1 1 0 1 1 0 1 1 1 2 3 4 4 4 4 5 5 5 5 5 5 4 4 4 4 4 3 3 3 3 3 3 2 2 2 2 2 2 2 3 3 3 3 3
3 4 5 6 6 7 8 9 10 10 9 7 6 5 5 6 6 6 5 5 4 5 5 4 3 2 1 0 0 0 0 0 0 1 0 1 1 1 1 0 0 0 0 1 0 0 0 0 1 1 1 2 3 4 4 5 5 5 6 5 5 5 5 4 4 4 3 4 4 4 4 4 3 3 3 3 2 2 2 2 2 2 3 3 3 3
7 8 9 9 10 10 11 13 13 14 13 11 10 8 7 6 6 6 5 4 5 5 4 3 2 1 1 0 0 0 0 1 1 1 1 1 1 1 1 1 0 0 0 1 1 1 0 1 1 1 1 2 2 3 5 4 4 4 6 6 6 5 4 4 3 3 3 3 3 3 3 3 3 3 3 3 3 3 2 2 2 2 3 3 3 3
10 11 11 11 11 12 13 14 14 14 14 14 13 12 9 7 6 6 5 5 5 4 4 3 3 2 1 1 1 0 0 1 1 1 1 0 1 1 1 1 0 0 0 1 1 1 1 1 1 1 1 1 2 3 4 5 3 1 4 5 5 5 4 4 3 2 2 1 1 1 2 2 3 3 3 3 3 3 2 2 2 2 2 2 1 1
11 11 11 11 12 13 13 13 13 14 14 14 13 10 7 5 5 5 5 5 5 4 3 3 2 2 2 1 0 0 0 1 2 2 2 1 1 1 1 1 0 0 0 1 1 1 0 1 1 1 1 2 2 2 3 4 4 3 2 4 5 5 4 4 3 3 2 2 1 0 0 1 1 2 2 2 2 3 3 2 2 2 1 1 1 0
9 9 9 9 10 10 9 9 10 12 13 12 10 7 4 3 3 4 5 5 4 4 4 3 2 2 2 2 1 0 1 1 2 3 2 1 1 1 1 1 0 0 0 1 1 1 1 0 0 0 1 1 2 2 2 3 3 4 4 3 4 4 5 4 4 3 3 2 2 2 2 1 1 1 2 2 2 3 3 3 3 1 0 0 0 1
6 6 6 6 6 5 5 5 6 8 9 8 7 5 3 3 3 4 4 4 4 4 4 3 3 2 2 2 2 1 1 1 2 3 3 2 1 1 1 1 1 0 1 0 1 1 1 1 1 0 1 1 1 2 2 2 2 3 3 2 3 4 5 5 4 3 3 3 3 3 3 3 3 3 3 3 4 4 4 5 4 3 1 1 1 2
5 5 4 4 4 4 4 4 5 5 5 5 4 4 4 4 4 4 4 3 3 3 3 3 3 2 2 2 1 1 1 1 3 4 3 2 1 1 1 1 1 0 1 1 1 0 1 1 1 1 0 1 1 1 2 2 2 2 2 2 2 2 4 4 4 3 3 3 3 3 3 4 4 4 4 5 5 5 6 6 6 4 2 2 2 3
5 4 4 4 4 4 4 4 4 4 4 3 3 3 3 3 4 4 3 2 3 3 3 3 3 2 2 1 1 1 1 1 3 5 5 2 2 1 1 1 1 1 0 1 1 1 1 1 1 0 0 0 1 1 1 1 1 2 2 1 1 1 2 2 2 2 2 2 2 3 3 3 4 4 5 5 6 6 7 7 7 6 4 3 3 3
5 4 4 4 4 4 4 4 4 4 3 3 3 3 3 3 3 3 2 2 2 2 3 3 3 3 2 1 1 1 1 1 3 5 5 3 2 1 1 1 2 2 1 1 1 1 1 1 1 0 0 0 0 0 1 1 1 1 1 1 1 1 1 1 1 1 1 1 1 1 2 2 3 3 4 4 5 6 6 7 7 7 6 5 4 4
5 4 4 4 4 4 4 4 3 3 3 3 3 3 3 2 2 2 2 2 2 2 2 2 2 3 3 2 2 1 1 2 4 6 6 3 2 2 2 1 2 2 2 1 1 1 1 1 1 0 0 0 1 1 1 1 1 1 0 0 0 1 1 1 1 1 1 1 1 0 0 1 1 2 2 3 4 5 6 6 7 7 7 6 5 4
4 4 4 3 3 4 3 3 3 3 3 2 2 2 2 2 2 2 2 2 2 2 2 2 2 1 1 2 2 2 3 3 5 6 6 4 2 2 1 2 2 2 2 2 1 1 1 1 1 1 0 0 1 1 1 1 0 0 0 0 0 0 0 1 1 1 1 1 1 1 0 0 0 1 2 3 3 4 5 5 5 6 6 6 6 5
4 4 3 3 3 3 4 3 3 2 2 2 2 2 2 2 2 2 2 2 2 2 3 3 3 2 2 1 1 1 3 4 5 6 6 4 2 1 1 1 2 2 2 2 2 2 2 2 1 1 0 0 0 1 1 1 0 0 0 0 0 0 1 0 1 1 1 1 1 1 0 0 1 1 1 2 3 3 4 4 4 4 5 5 6 5
4 4 3 2 2 3 3 3 3 2 2 2 2 2 2 2 2 2 2 2 2 2 3 3 3 3 4 3 3 3 3 4 5 5 5 4 2 1 2 2 2 2 1 2 2 2 2 2 2 1 1 1 0 0 0 0 0 0 0 0 1 1 1 1 1 1 1 1 1 1 1 1 1 1 1 2 2 2 2 2 2 3 3 4 5 6
4 4 3 3 2 2 2 2 3 2 2 2 2 2 2 3 3 3 2 2 3 3 3 3 3 3 3 4 4 4 4 4 3 4 4 4 3 2 2 2 2 2 1 1 1 2 2 2 2 2 1 1 1 0 0 0 0 0 1 1 1 2 2 2 1 1 1 1 2 2 2 1 1 1 1 1 1 1 1 1 1 1 2 2 3 4
4 4 4 3 2 1 1 2 2 3 3 3 3 3 3 3 3 3 3 2 3 3 3 3 3 3 3 3 4 4 4 2 2 2 3 3 2 2 2 2 3 3 2 1 1 1 2 2 2 1 1 1 1 1 1 1 1 1 1 1 1 1 1 2 2 1 1 1 1 2 2 1 1 1 1 1 1 1 1 1 1 1 1 1 2 3
4 3 3 2 2 2 2 2 3 3 3 3 3 3 3 3 3 2 2 2 2 2 2 2 2 2 3 3 3 3 3 2 2 1 1 1 2 1 1 2 3 3 3 2 2 1 2 2 2 2 2 1 1 1 1 2 2 2 3 3 2 2 2 2 1 1 1 1 1 2 2 1 1 1 1 1 1 1 1 1 2 2 1 1 1 2
4 4 3 2 2 2 2 2 3 3 3 3 3 3 3 3 3 3 3 3 2 2 1 1 2 2 2 2 2 2 2 2 1 1 1 1 1 1 2 2 2 3 3 3 2 2 2 2 3 3 3 2 2 2 3 3 3 3 3 3 3 3 4 3 1 1 1 1 1 1 2 1 1 1 1 1 1 1 2 2 2 3 2 1 1 2
4 3 3 3 3 3 3 3 3 3 3 3 3 3 3 3 3 3 4 3 3 3 2 2 2 2 3 2 2 2 2 1 1 1 1 1 1 1 2 2 2 3 3 3 2 1 1 2 2 3 3 3 3 3 3 3 3 3 4 3 3 2 2 1 1 1 1 1 1 1 1 1 1 1 1 2 2 2 2 2 3 3 3 2 2 2
3 3 3 3 3 3 3 3 2 2 3 3 3 3 2 2 3 3 3 3 3 3 2 1 1 1 2 2 2 2 2 2 1 1 0 1 2 2 2 2 2 2 3 3 2 2 2 2 2 2 2 2 3 3 4 3 3 3 3 3 3 3 3 1 1 1 1 1 1 1 1 1 1 1 2 2 2 2 2 2 2 2 3 2 2 2
3 3 3 3 3 3 3 3 3 3 3 3 3 3 3 2 2 2 3 3 3 3 2 2 1 1 1 1 1 1 1 1 2 2 1 1 2 3 3 2 2 2 3 3 3 3 2 2 2 2 2 2 3 4 4 4 4 4 3 4 4 4 4 3 2 2 2 2 2 2 1 1 1 1 2 3 2 2 2 2 2 2 2 2 2 3
3 4 4 3 3 4 4 4 3 3 3 3 3 3 3 2 2 2 3 3 3 3 2 2 2 2 2 1 1 1 1 1 1 2 2 2 2 2 2 2 2 2 2 2 2 2 2 2 2 2 2 2 3 4 5 4 4 4 4 4 4 4 4 4 4 4 4 4 3 2 1 1 1 2 3 3 2 2 2 2 2 2 2 2 2 3
4 4 4 4 4 4 4 4 3 3 3 3 3 3 2 2 2 2 2 3 3 3 2 2 2 2 2 1 1 1 1 1 1 1 2 2 2 2 1 1 1 2 2 1 1 2 2 2 1 2 2 2 3 4 4 4 4 4 4 3 3 3 4 4 4 3 3 4 3 2 2 2 2 2 3 2 2 2 2 2 2 2 2 2 2 3
5 5 5 5 4 4 4 4 4 4 4 3 3 2 2 3 3 3 2 3 3 3 3 2 2 2 2 2 1 1 2 2 1 1 2 2 2 2 1 1 1 1 1 1 1 2 2 2 3 3 4 4 4 4 4 4 4 4 4 3 3 4 4 4 3 3 3 3 3 2 2 2 2 2 2 2 2 2 2 2 2 2 2 3 3 3
5 5 5 5 5 5 4 4 4 4 4 4 3 3 2 3 4 4 3 3 3 3 3 3 3 3 3 2 2 2 2 2 1 1 1 1 2 2 2 2 2 2 2 1 1 2 2 3 4 6 6 6 5 5 5 4 4 3 3 3 3 4 4 4 3 2 2 3 2 2 3 3 2 2 2 2 3 3 2 2 2 2 2 2 3 3
5 5 5 5 5 5 5 5 5 4 4 4 4 3 3 3 3 3 2 3 3 3 3 4 4 4 3 3 3 3 3 2 2 1 1 1 1 2 2 2 2 2 2 1 1 1 2 2 4 6 9 9 8 7 5 4 4 3 3 3 4 3 3 3 3 2 2 2 2 2 3 2 2 2 2 2 3 3 3 3 3 2 2 2 2 3
5 5 5 5 5 5 5 5 5 5 5 4 4 4 4 3 3 2 2 3 3 3 3 4 4 4 4 4 4 4 4 3 3 2 2 1 2 2 2 2 2 2 2 1 1 1 1 1 2 3 6 10 11 10 6 5 4 3 3 3 3 3 3 3 3 2 2 2 2 2 2 2 2 2 2 2 3 3 3 3 3 2 2 1 2 2
Wind_Direction
115 129 138 145 147 149 155 154 149 143 137 132 127 119 106 94 83 76 73 74 79 85 85 81 87 101 119 128 130 132 134 133 132 130 127 128 129 131 134 132 128 122 117 112 107 103 99 94 91 87 83 79 75 72 69 66 64 62 59 58 56 55 54 52 51 50 50 50 51 52 53 53 50 45 40 39 41 44 47 42 31 20 10 2 354 349
126 132 143 153 153 151 152 157 154 149 145 141 136 129 120 110 98 83 70 64 64 68 73 72 74 79 90 117 129 133 135 135 135 134 134 135 137 138 140 140 135 130 123 118 113 108 103 98 94 89 84 80 75 72 68 66 63 61 58 56 54 52 51 49 46 44 42 42 41 41 41 40 38 34 31 32 34 36 39 35 25 13 5 358 349 340
145 147 155 160 160 157 151 157 155 148 143 140 137 134 128 120 111 98 84 70 61 57 55 55 60 63 62 87 122 135 137 138 138 139 140 141 143 144 145 145 141 136 130 124 118 112 106 101 96 91 86 82 78 74 71 68 66 63 61 58 56 53 50 47 44 41 38 35 33 31 29 27 24 23 22 24 25 27 28 26 19 10 5 358 348 337
152 153 157 158 159 157 147 148 143 135 128 127 129 129 125 119 112 104 95 87 75 62 49 46 49 53 47 43 110 138 142 142 143 145 145 146 147 149 150 150 147 142 136 129 122 116 109 104 99 93 89 85 81 79 76 75 73 71 68 64 61 57 52 48 44 39 35 30 25 21 18 15 14 14 14 16 16 17 17 16 12 6 2 354 345 334
155 153 152 146 140 135 130 129 126 119 109 110 113 115 111 107 106 105 99 95 87 76 58 48 45 43 34 10 106 140 145 147 148 149 150 150 151 153 154 154 151 146 140 133 126 119 113 107 102 97 92 89 87 85 84 84 83 81 78 74 68 62 56 50 44 38 32 26 20 14 10 8 7 7 8 8 7 7 6 6 3 359 355 349 342 335
153 148 142 130 119 112 115 126 126 120 112 105 101 98 95 96 99 102 105 100 95 86 70 56 46 37 26 16 73 120 136 144 148 151 152 153 155 157 158 155 152 147 140 134 128 122 116 111 105 101 97 94 92 91 90 91 90 88 86 81 74 67 59 51 44 37 30 23 17 11 7 5 4 4 4 2 360 357 354 351 349 346 344 342 339 335
144 141 134 109 96 99 112 132 137 137 134 125 113 103 96 93 91 90 94 98 101 99 90 74 59 44 31 32 51 76 103 122 133 141 148 154 157 158 157 154 150 144 138 134 129 125 120 114 110 106 102 99 96 94 92 91 90 89 87 82 76 68 59 50 42 34 26 20 16 12 10 9 8 7 5 2 356 350 345 338 333 331 330 333 336 337
144 145 142 124 114 112 116 125 139 147 149 146 140 131 120 106 95 89 86 87 93 100 106 97 81 62 44 40 49 61 77 88 93 104 126 142 149 150 149 146 142 139 135 132 130 127 123 119 116 112 108 104 99 95 90 87 85 83 81 78 71 62 51 43 35 28 21 16 14 14 17 18 17 16 15 10 3 353 343 334 328 323 323 328 333 337
149 152 154 149 146 143 139 128 120 132 154 155 152 148 142 134 123 111 99 87 79 81 103 114 107 90 63 49 52 62 73 77 74 71 76 86 100 114 126 129 130 131 131 130 129 129 128 126 123 119 115 109 102 96 89 85 80 77 74 69 62 50 41 33 26 21 14 10 11 16 23 27 30 31 30 26 16 5 351 339 332 326 325 328 332 335
149 153 153 153 151 150 148 137 120 90 90 144 143 143 146 146 143 138 130 115 94 69 65 100 109 106 87 62 55 58 67 74 72 68 62 57 60 69 77 86 99 110 114 117 120 124 127 127 126 124 119 112 106 99 91 84 78 74 69 62 52 42 32 26 22 16 10 8 10 15 25 32 37 42 43 43 38 28 12 357 346 339 335 332 332 332
149 151 149 143 131 111 117 116 116 119 136 120 107 98 110 143 149 151 153 149 145 134 83 63 73 88 91 70 56 53 57 68 65 59 53 48 49 52 53 57 63 71 80 86 92 98 104 109 117 121 118 113 108 103 95 87 81 73 75 161 102 54 36 28 21 15 11 9 12 16 23 31 38 44 51 57 59 57 51 33 15 1 349 339 334 332
150 151 149 144 135 116 97 96 103 124 145 140 138 143 166 158 153 157 161 159 156 152 135 95 60 50 50 48 43 41 49 70 69 57 43 36 33 31 34 40 45 50 55 58 61 64 68 69 89 110 112 110 107 105 103 103 123 214 228 216 202 178 123 55 33 23 16 12 14 17 21 27 34 43 54 65 72 75 73 65 51 33 11 354 343 336
140 142 147 153 153 149 134 131 137 153 171 176 177 177 175 167 148 142 153 149 147 146 140 127 101 69 45 33 27 29 36 69 75 68 50 34 20 12 5 15 24 30 32 41 44 44 45 47 63 87 97 95 96 97 106 131 195 219 217 205 192 179 162 119 62 36 22 17 14 15 17 21 29 40 55 69 78 81 80 75 67 55 38 19 1 350
139 139 149 161 165 165 160 161 166 174 185 188 184 171 150 139 132 125 119 120 120 122 126 122 113 95 69 49 35 26 21 60 76 74 61 44 22 4 345 351 5 16 17 36 41 36 28 30 40 61 75 76 79 85 105 169 209 215 207 196 187 177 164 138 85 42 21 13 9 7 9 14 24 38 53 70 78 81 79 75 69 62 51 37 22 9
152 155 164 173 175 175 173 176 181 184 184 171 143 108 102 118 134 142 137 133 131 128 127 120 115 107 100 84 64 40 6 68 105 104 92 64 33 8 341 332 344 15 22 44 45 34 24 21 16 13 29 38 51 107 180 206 211 209 202 193 185 176 166 148 107 31 7 360 355 352 351 2 17 32 49 65 74 78 77 72 67 59 51 38 27 19
164 169 175 180 181 181 179 184 186 183 164 134 122 128 136 148 157 159 152 147 146 147 148 144 143 144 158 128 116 108 99 137 131 129 130 107 55 19 348 331 338 16 26 43 39 27 17 14 1 345 336 321 284 239 217 214 211 207 201 193 186 179 175 179 193 308 338 340 338 334 336 350 8 25 39 54 65 72 73 68 62 53 42 30 22 17
174 181 184 183 183 182 177 183 180 163 133 129 137 150 157 161 162 159 153 149 151 157 164 162 162 165 177 162 144 136 133 159 145 136 137 132 85 30 358 338 330 5 25 40 33 18 1 1 356 336 302 282 261 239 220 215 212 208 201 195 190 188 191 200 214 250 307 324 322 319 319 336 2 26 36 45 55 65 67 64 56 45 29 19 13 11
183 189 190 189 183 175 168 170 157 130 129 140 142 143 139 139 143 147 150 154 160 166 170 169 168 165 162 175 167 146 131 169 154 141 142 145 114 47 7 341 315 265 256 68 37 19 360 342 317 293 277 273 260 241 223 217 213 209 204 199 196 196 198 202 209 232 290 306 303 300 296 304 13 58 56 55 59 63 69 64 54 39 18 5 360 1
188 192 194 190 175 161 162 169 165 158 157 157 153 146 135 128 132 143 153 162 168 170 167 168 169 166 161 170 147 127 130 185 164 149 154 156 127 58 11 341 317 278 193 79 51 28 356 325 305 298 297 289 275 252 231 222 218 213 209 204 200 197 194 192 193 210 262 281 278 270 252 197 119 96 82 66 63 63 64 61 54 37 8 353 348 349
188 195 198 177 157 154 168 179 178 173 170 162 155 150 149 150 153 157 161 166 164 159 155 164 166 166 167 148 115 107 126 190 171 154 155 153 124 55 15 345 326 290 182 84 48 17 337 317 304 296 290 281 268 250 233 227 224 222 218 210 201 192 182 176 174 184 226 246 242 227 187 143 113 87 68 54 44 37 31 24 12 2 351 340 338 336
192 199 199 178 165 166 177 181 179 173 166 155 150 150 153 156 161 165 166 162 157 153 156 164 161 154 158 137 119 107 90 191 165 147 141 142 129 68 36 345 320 278 159 108 74 18 323 309 299 289 280 274 263 248 236 235 236 235 229 214 198 182 170 167 168 176 197 211 206 187 160 143 124 97 70 47 30 15 360 339 327 317 317 317 317 317
194 198 190 186 184 180 173 167 167 166 161 157 158 161 162 166 169 171 169 166 164 163 159 144 118 93 93 100 95 83 12 305 173 140 134 160 178 144 90 350 302 266 140 97 55 360 321 308 298 291 292 294 285 268 254 251 248 245 237 215 194 177 167 166 168 173 183 184 182 172 156 157 155 144 114 33 354 336 317 306 301 300 303 304 299 293
194 189 173 180 184 174 148 148 153 159 162 165 167 168 165 170 170 168 167 163 157 145 122 101 89 82 80 82 81 72 27 346 338 105 138 176 180 148 90 12 294 214 129 70 14 340 319 315 307 307 312 316 310 294 275 262 254 246 235 212 191 176 169 170 171 175 177 177 174 170 165 170 176 185 199 235 268 279 282 284 287 290 295 297 294 289
186 170 157 162 159 140 125 135 142 147 148 141 129 110 95 112 118 123 127 125 121 115 111 110 105 96 83 89 88 78 39 9 340 306 152 169 156 119 75 15 299 166 114 72 15 336 316 323 337 336 327 329 324 311 293 273 258 246 232 209 191 179 174 175 176 177 178 178 178 177 177 183 190 198 208 223 238 252 262 271 278 284 291 296 296 295
145 141 141 147 147 144 138 140 141 140 132 118 106 98 90 88 87 87 89 96 105 114 123 122 116 106 87 90 91 80 47 11 334 305 148 143 128 98 77 24 350 58 98 74 33 333 311 351 34 22 351 341 334 324 304 280 259 241 225 204 189 180 178 179 180 182 182 184 186 189 191 195 198 201 206 214 223 233 244 258 270 281 288 295 298 299
130 132 135 139 141 142 141 142 142 141 137 131 126 121 116 110 105 102 104 113 124 133 134 129 124 119 111 111 143 157 118 112 293 290 181 128 123 115 108 84 358 327 74 68 37 353 330 55 50 29 8 348 336 325 309 281 255 233 214 197 184 177 175 176 179 182 185 190 194 198 200 202 203 204 206 211 218 225 233 245 257 270 280 286 290 294
121 125 129 133 136 138 139 140 140 140 138 136 135 134 130 125 122 122 130 144 150 149 144 140 134 128 120 140 164 168 147 158 193 241 268 126 121 124 129 124 149 270 72 65 39 13 13 48 38 16 4 347 334 328 324 305 268 226 199 184 174 168 165 165 167 172 177 189 196 201 204 205 205 206 208 213 219 225 232 240 250 261 270 273 282 290
112 118 123 127 131 134 136 137 139 139 138 138 139 139 138 135 135 142 156 160 158 153 147 143 140 137 142 155 158 159 176 188 185 189 222 157 119 122 120 111 110 270 98 80 51 27 24 27 15 357 342 338 334 337 341 341 332 244 172 163 157 152 147 144 141 138 138 152 178 196 203 205 206 207 210 215 221 229 238 247 256 266 276 284 296 304
101 107 112 120 125 128 130 133 134 136 136 137 139 140 140 138 143 152 159 158 154 151 148 144 138 134 135 131 110 64 232 198 175 167 177 153 114 105 105 101 98 99 135 116 104 84 53 42 21 356 336 343 348 351 347 356 3 21 75 124 130 127 122 116 109 100 88 76 63 49 306 226 219 220 222 228 233 241 251 260 267 277 305 337 355 347
83 88 93 102 108 113 119 125 129 131 131 130 130 128 121 118 128 139 146 149 149 148 146 141 134 129 126 116 106 124 224 184 160 156 169 158 135 117 118 116 114 156 205 149 142 140 138 125 99 39 360 353 355 357 354 4 13 21 31 73 92 95 92 85 80 74 63 50 36 20 4 345 319 291 273 266 263 263 265 268 270 272 18 67 244 250
76 74 70 72 75 80 86 99 111 117 116 112 107 100 91 93 106 122 135 143 144 142 140 140 139 138 139 134 141 163 201 165 151 153 171 158 135 127 135 131 120 114 278 226 173 157 148 146 145 121 32 8 4 5 9 16 18 18 16 37 60 70 71 66 62 58 51 38 23 9 356 345 332 319 305 294 285 279 275 273 270 263 211 225 241 249
83 79 74 69 66 64 67 72 81 88 91 86 82 81 85 94 105 117 130 136 135 131 131 135 139 143 146 147 153 161 170 141 150 158 166 146 121 114 130 125 119 109 289 301 293 164 139 142 145 137 40 17 12 14 14 21 22 19 10 24 46 59 59 55 53 50 46 32 18 6 355 344 333 321 310 299 291 284 278 276 272 265 245 240 242 246
92 87 83 80 77 74 74 77 80 82 81 76 73 74 80 92 103 111 120 125 127 127 130 134 138 139 137 123 114 114 107 127 155 163 164 146 127 121 134 128 128 130 147 330 339 360 85 114 123 119 358 4 15 17 14 26 31 28 11 15 30 46 48 42 40 38 37 24 13 4 358 347 335 322 311 301 292 285 279 275 271 266 257 247 243 244
101 98 93 89 87 84 84 85 87 87 86 82 80 80 81 89 96 102 106 105 112 122 131 139 143 146 144 130 116 106 102 139 159 164 165 153 136 131 138 140 143 144 141 115 54 45 55 69 84 103 161 143 80 63 44 32 33 35 21 3 360 10 23 19 14 10 7 357 352 353 1 348 335 322 312 301 291 284 278 274 269 265 261 252 244 240
108 105 102 101 101 100 98 96 96 95 93 89 86 85 85 89 92 94 94 86 83 90 105 124 136 143 147 146 146 147 149 156 165 168 170 164 150 136 135 147 153 151 144 138 125 111 98 86 82 90 117 140 139 122 92 53 33 27 21 344 329 337 353 354 344 332 315 291 264 248 359 340 328 318 309 298 290 285 281 278 274 270 266 258 251 241
118 117 116 116 117 116 115 113 112 110 106 97 89 84 86 86 86 84 79 73 74 76 77 74 79 94 125 142 147 148 148 152 163 170 174 170 159 142 131 151 158 156 146 141 137 132 123 113 101 86 84 135 150 144 117 90 58 23 356 300 305 312 312 317 306 295 282 264 245 220 202 278 297 302 301 301 299 297 294 291 286 281 276 270 264 253
130 131 132 130 130 131 131 131 130 128 124 115 101 91 86 82 80 77 69 60 62 70 79 76 70 63 59 69 97 119 131 145 158 168 173 166 157 142 125 142 158 162 155 146 143 140 133 131 129 126 116 172 175 155 117 84 80 204 175 204 255 258 243 224 239 254 262 260 254 242 226 248 277 296 300 309 312 311 307 304 300 297 295 291 284 276
144 145 148 147 146 145 143 146 148 148 142 130 114 100 90 86 82 79 74 63 61 66 78 81 76 65 54 57 63 79 104 132 149 161 166 161 153 137 123 131 150 165 166 150 145 145 146 149 153 158 165 193 219 218 94 38 356 219 181 227 229 224 208 195 203 223 240 252 256 255 245 247 264 295 303 315 317 315 311 312 310 311 316 308 300 291
157 159 162 163 161 156 150 152 151 148 138 125 115 108 102 96 90 87 83 76 69 67 70 78 78 68 52 54 62 75 89 113 135 151 158 159 157 145 130 134 142 151 146 135 137 144 151 159 165 169 165 171 188 194 157 214 246 270 296 268 233 210 188 179 187 204 227 242 253 256 254 259 270 281 285 297 301 308 319 325 328 331 338 324 303 290
166 166 167 167 162 152 147 138 134 132 128 122 118 115 113 107 101 96 94 90 85 81 80 84 84 78 63 55 55 60 68 83 104 126 144 160 164 159 144 141 141 141 139 135 142 154 160 164 172 176 170 158 157 162 165 180 191 207 241 262 247 219 189 185 186 191 207 227 248 256 256 251 248 244 243 244 262 292 315 313 313 316 326 318 295 280
170 170 169 160 144 119 102 105 114 123 129 130 129 128 129 126 122 117 111 104 98 94 98 101 98 92 80 66 56 48 43 50 68 88 93 149 166 171 167 147 141 141 144 148 156 169 177 177 184 189 190 190 204 218 219 209 212 224 246 257 263 267 269 254 232 197 189 217 234 242 245 237 225 217 223 232 241 258 282 282 280 278 277 264 258 259
171 170 164 150 133 119 110 111 117 123 129 132 135 140 144 143 142 140 137 130 123 117 116 130 131 128 120 111 95 74 51 33 35 75 94 115 158 186 191 164 150 145 146 146 153 172 193 195 200 203 204 207 221 235 245 241 238 239 247 258 273 284 285 270 250 126 201 215 222 230 237 231 223 225 247 275 279 275 269 260 256 254 248 228 222 234
169 160 146 137 132 131 130 126 126 129 134 135 138 142 146 150 151 149 143 139 139 138 133 137 142 145 145 145 138 121 93 54 21 17 116 136 171 202 210 184 164 154 151 148 150 161 193 210 216 216 213 212 223 238 250 251 249 246 245 250 261 274 278 245 163 148 198 208 209 216 228 231 239 262 287 293 290 282 269 261 255 252 248 227 212 216
147 132 124 127 129 131 131 134 140 146 149 147 145 145 148 154 151 144 134 135 138 141 138 133 131 133 135 145 144 135 119 105 87 67 71 179 183 188 205 195 183 175 174 175 169 162 158 198 216 220 212 213 225 237 247 251 252 249 245 241 240 241 245 244 201 162 200 209 206 204 212 223 251 279 286 282 276 269 259 253 251 252 250 234 222 220
127 124 128 135 139 144 148 153 156 157 157 153 150 149 151 157 153 144 132 134 138 141 143 143 139 135 138 151 144 132 133 129 122 115 105 137 158 167 177 186 195 200 202 204 201 193 186 195 196 191 180 203 222 233 242 248 252 253 247 238 236 238 242 246 247 244 243 247 241 228 204 195 241 273 277 271 265 258 252 248 246 245 244 233 225 226
132 136 143 147 153 159 163 162 161 159 160 157 153 151 152 157 153 143 134 134 136 143 153 154 157 159 167 161 152 144 153 147 135 126 116 110 118 139 160 175 188 201 212 218 221 222 223 212 183 158 156 196 222 233 237 241 247 251 252 243 239 241 246 246 245 244 248 255 256 248 198 187 228 256 267 270 271 268 261 255 253 250 246 236 230 229
148 150 154 157 162 165 166 163 162 163 166 164 158 154 152 156 154 146 135 133 136 141 149 155 168 177 179 166 156 156 166 166 157 147 138 129 123 121 123 147 169 185 204 218 232 241 247 239 209 187 191 216 232 238 236 234 237 242 247 245 243 244 246 246 243 239 236 248 250 238 172 193 225 246 258 266 271 272 267 257 252 250 248 244 238 234
159 159 160 163 165 167 167 168 170 172 174 169 163 156 157 165 165 159 144 147 147 148 152 162 177 187 189 179 174 175 178 175 167 156 149 139 130 124 121 127 134 146 163 187 218 236 243 238 229 223 224 231 240 246 244 235 234 237 242 242 244 247 250 251 245 236 228 239 237 221 189 212 233 250 262 270 273 272 269 263 254 247 241 241 241 239
163 163 164 165 167 170 172 174 177 178 178 171 165 159 162 175 176 171 156 158 161 164 167 174 182 190 196 196 195 196 198 191 178 155 147 138 133 131 130 132 134 136 137 156 187 214 230 230 226 224 225 228 237 247 253 246 240 237 240 241 244 247 253 255 250 239 225 224 212 200 202 224 238 251 265 271 275 277 280 277 267 254 240 236 238 239
168 167 167 168 171 173 175 176 179 181 181 173 167 161 160 171 175 172 159 162 169 175 180 183 187 192 198 199 197 197 201 199 197 193 180 147 139 140 140 140 142 144 141 152 172 195 217 228 227 224 222 222 226 234 246 248 245 239 238 239 241 245 251 257 256 247 229 216 196 185 199 215 227 235 244 257 265 272 277 276 271 265 250 236 234 237
174 173 172 173 176 177 177 178 180 182 181 175 168 162 159 164 167 168 165 172 179 184 188 189 192 195 200 199 197 196 197 198 201 204 195 163 150 150 151 151 152 153 151 155 163 176 212 238 234 226 219 216 217 220 229 234 236 235 236 236 236 238 245 253 256 254 247 228 198 177 182 196 207 217 228 243 256 264 268 267 268 268 261 237 230 233